Content
SEND FEEDBACK

Daily
Averages
Monthly
Summary
Philippines

QUEZON CITY, PHILIPPINES


Home > Asia > Philippines
Elevation: 46 meters     Latitude: 14 39N     Longitude: 121 03E

WEATHER
 
SELECT A DAY
Number of Records: 177,139;   Date Range: 7/1/96 - 10/24/14
 
SHARE

PRINT THIS DATA

[ ← Previous Day ]
WEATHER ALMANAC - 8 JULY, 2013
[ Next Day → ]
[ °F ]   °C
We're sorry. There is no daily almanac available for Quezon City, Philippines on 8 July, 2013.
WEATHER BY HOUR - 8 JULY, 2013
[ °F ]   °C
Local TimeTemperatureDewpointHumidityBarometerVisibilityWind DirectionWind SpeedGust SpeedPrecipitationEventsConditions
1:00 AM27 °C23 °C79 %1012.2 hPa10 kmVariable1.9 km/hScattered Clouds
2:00 AM26.7 °C23.3 °C76 %1011.5 hPa9.7 kmCalmHaze
2:00 AM27 °C23 °C79 %1011.2 hPa10 kmCalmMostly Cloudy
3:00 AM27 °C23 °C79 %1011.2 hPa10 kmCalmMostly Cloudy
4:00 AM27 °C23 °C79 %1010.2 hPa10 kmVariable3.7 km/hScattered Clouds
5:00 AM26.1 °C23.3 °C80 %1011.2 hPa9.7 kmSouth (170°)3.5 km/hHaze
5:00 AM26 °C23 °C83 %1011.2 hPa10 kmVariable3.7 km/hScattered Clouds
6:00 AM26 °C23 °C83 %1011.2 hPa10 kmVariable3.7 km/hScattered Clouds
7:00 AM28 °C23 °C74 %1011.2 hPa10 kmENE (60°)7.4 km/hPartly Cloudy
8:00 AM29.4 °C23.3 °C62 %1012.2 hPa9.7 kmNNE (30°)3.5 km/hHaze
8:00 AM30 °C23 °C66 %1012.2 hPa10 kmVariable3.7 km/hPartly Cloudy
9:00 AM31 °C22 °C58 %1012.2 hPa10 kmENE (70°)7.4 km/hPartly Cloudy
10:00 AM30 °C23 °C66 %1012.2 hPa10 kmVariable3.7 km/hMostly Cloudy
11:00 AM30.6 °C22.8 °C54 %1011.9 hPa9.7 kmEast (90°)7.2 km/hHaze
11:00 AM30 °C23 °C66 %1012.2 hPa10 kmVariable5.6 km/hMostly Cloudy
12:00 PM31 °C24 °C66 %1011.2 hPa10 kmVariable9.3 km/hPartly Cloudy
1:00 PM33 °C23 °C55 %1010.2 hPa10 kmVariable13 km/hPartly Cloudy
2:00 PM32.8 °C22.8 °C47 %1009.5 hPa9.7 kmSE (130°)18 km/h
2:00 PM33 °C24 °C59 %1009.1 hPa10 kmSE (130°)16.7 km/hPartly Cloudy
3:00 PM33 °C24 °C59 %1008.1 hPa10 kmSE (130°)14.8 km/hPartly Cloudy
4:00 PM32 °C24 °C62 %1008.1 hPa10 kmSE (130°)18.5 km/hScattered Clouds
5:00 PM31.1 °C23.3 °C55 %1008.1 hPa9.7 kmESE (120°)14.3 km/hHaze
5:00 PM31 °C23 °C62 %1008.1 hPa10 kmESE (120°)16.7 km/hScattered Clouds
6:00 PM31 °C23 °C62 %1008.1 hPa10 kmSE (130°)16.7 km/hMostly Cloudy
7:00 PM30 °C24 °C70 %1009.1 hPa10 kmSE (130°)11.1 km/hScattered Clouds
8:00 PM29.4 °C23.3 °C62 %1010.2 hPa9.7 kmESE (120°)10.8 km/hPartly Cloudy
8:00 PM30 °C23 °C66 %1010.2 hPa10 kmESE (120°)13 km/hScattered Clouds
9:00 PM29 °C23 °C70 %1010.2 hPa10 kmESE (120°)9.3 km/hScattered Clouds
10:00 PM29 °C23 °C70 %1011.2 hPa10 kmSE (140°)5.6 km/hPartly Cloudy
11:00 PM27.8 °C23.3 °C71 %1011.2 hPa9.7 kmEast (90°)3.5 km/hHaze
11:00 PM28 °C23 °C74 %1010.2 hPa10 kmVariable3.7 km/hPartly Cloudy
Hourly data recorded from RPLL, located 0 kilometers away from Quezon City, Philippines







STORIES FROM OUR PARTNERS